Location: Peach Mountain Observatory
(42.3967°N, 83.9367°W)
Time: 09:26:26
(UTC-05:00)

Transit 4A - Pass Details

Date: 21 January 2020
Orbit: 872 x 973 km, 66.8° (Epoch: 28 February)

Event Time Altitude Azimuth Distance (km) Brightness Sun altitude
Rises 07:20:15 0° 192° (SSW) 3,561 11.1 -7.4°
Reaches altitude 10° 07:22:52 10° 187° (S) 2,606 10.4 -7.0°
Maximum altitude 07:28:39 49° 114° (ESE) 1,148 9.0 -6.0°
Drops below altitude 10° 07:34:19 10° 41° (NE) 2,559 10.5 -5.0°
Sets 07:36:52 0° 36° (NE) 3,492 11.1 -4.6°
